Flag for Germany Weather past 2 weeks in Mosbach, Baden-Württemberg, Germany

Now
49 °F

Overcast.


Feels Like: 46 °F
Forecast: 38 / 47 °F
Wind: 6 mph from Southwest

Location: Oehringen

Current Time: Mar 2, 2015 at 12:35:38 AM

Latest Report: Mar 2, 2015 at 12:00 AM


Visibility: 34 mi

Pressure: 29.69 "Hg

Humidity: 76%

Dew point: 41 °F

Location of MosbachLocation

Historic Weather in Mosbach — Graph

°F

Mosbach temperature yesterday

Maximum temperature yesterday: 48 °F (at 3:00 PM)
Minimum temperature yesterday: 35 °F (at 12:00 AM)
Average temperature yesterday: 42 °F

Past Weeks' High & Low Weather Summary

 TemperatureHumidityPressure
High57 °F (Feb 20, 4:00 PM)100% (Feb 17, 5:00 AM)30.79 "Hg (Feb 17, 5:00 AM)
Low24 °F (Feb 20, 7:00 AM)34% (Feb 21, 1:00 AM)29.53 "Hg (Feb 21, 11:00 AM)
Average37 °F80%30.06 "Hg
* Reported Feb 14 11:00 PM — Mar 1 11:00 PM, Mosbach, Weather by CustomWeather, © 2015

Note: Actual official high and low records may vary slightly from our data, if they occured in-between our weather recording intervals... More about our weather records

Advertising

Mosbach weather history for previous 24 hours

 ConditionsComfort  
Time TempWeatherWind HumidityBarometerVisibility
11:00 PM
Sun, Mar 1
48 °FOvercast.5 mph80%29.70 "Hg37 mi
10:00 PM47 °FOvercast.2 mph87%29.74 "Hg19 mi
9:00 PM48 °FOvercast.3 mph87%29.76 "Hg25 mi
8:00 PM47 °FOvercast.1 mph93%29.77 "Hg19 mi
7:00 PM47 °FOvercast.2 mph96%29.75 "Hg15 mi
6:00 PM48 °FOvercast.2 mph86%29.75 "Hg43 mi
5:00 PM48 °FOvercast.5 mph89%29.77 "Hg43 mi
4:00 PM48 °FDrizzle. Overcast.7 mph88%29.77 "Hg12 mi
3:00 PM48 °FOvercast.5 mph88%29.77 "Hg31 mi
2:00 PM46 °FDrizzle. Overcast.6 mph91%29.79 "Hg22 mi
1:00 PM44 °FDrizzle. Low clouds.5 mph97%29.80 "Hg2 mi
12:00 PM42 °FDrizzle. Low clouds.5 mph96%29.82 "Hg2 mi
11:00 AM43 °FOvercast.2 mph83%29.79 "Hg31 mi
10:00 AM41 °FOvercast.5 mph84%29.79 "Hg25 mi
9:00 AM39 °FLight rain. Overcast.5 mph86%29.82 "Hg9 mi
8:00 AM37 °FLight freezing rain. Overcast.3 mph89%29.83 "Hg4 mi
7:00 AM37 °FLight rain. Overcast.2 mph87%29.85 "Hg6 mi
6:00 AM38 °FDrizzle. Overcast.1 mph72%29.87 "Hg12 mi
5:00 AM38 °FOvercast.3 mph70%29.87 "Hg15 mi
4:00 AM37 °FOvercast.2 mph75%29.90 "Hg11 mi
3:00 AM36 °FOvercast.2 mph77%29.94 "Hg9 mi
2:00 AM35 °FOvercast.3 mph78%29.97 "Hg10 mi
1:00 AM35 °FOvercast.2 mph78%30.00 "Hg9 mi
12:00 AM35 °FClear.3 mph80%30.02 "Hg7 mi
Weather by CustomWeather, © 2015

See weather overviewHow to use our weather pages